15min,AgWx,beryljct,423,12DEC2020:00:00:00,26.1,12.76,29.3,29.0,27.3,29.1,24.0,50,53,48,0.259,10.9,11.9,7.9,0.46,1.1,131,61,3.4,-0.00011,-0.00015,31.0,34.1,8,0,0,.,5.99,0.00,0.00
15min,AgWx,beryljct,423,12DEC2020:00:15:00,26.6,12.76,27.8,28.1,28.0,29.0,26.8,50,53,47,0.265,12.0,13.5,10.3,2.521,1.1,79,31,2.5,-0.00012,-0.00015,30.9,34.1,8,0,0,.,5.98,0.00,0.00
15min,AgWx,beryljct,423,12DEC2020:00:30:00,27.1,12.74,28.6,28.5,27.6,28.5,26.8,53,56,51,0.293,12.5,14.8,11.6,2.083,1.6,146,52,3.4,-0.00008,-0.00010,30.8,34.0,8,0,0,.,5.99,0.00,0.00
15min,AgWx,beryljct,423,12DEC2020:00:45:00,27.8,12.75,35.5,34.4,30.5,34.4,27.3,59,66,52,0.433,17.9,23.6,12.0,9.58,4.9,191,11,9.6,0.00005,0.00008,30.6,34.0,8,0,0,.,5.99,0.00,0.00
15min,AgWx,beryljct,423,12DEC2020:01:00:00,30.3,12.74,37.7,37.1,36.1,37.3,34.5,61,64,59,0.444,24.0,24.4,23.5,12.14,10.0,205,8.6,15.0,0.00017,0.00021,30.6,34.0,8,0,0,.,5.98,0.00,0.00
15min,AgWx,beryljct,423,12DEC2020:01:15:00,33.1,12.74,37.8,37.5,37.3,37.6,37.1,60,62,59,0.458,24.9,25.2,24.3,7.826,10.1,208,5.6,13.4,0.00018,0.00022,30.5,34.0,8,0,0,.,5.98,0.00,0.00
15min,AgWx,beryljct,423,12DEC2020:01:30:00,34.8,12.73,37.5,37.2,37.3,37.6,36.8,60,61,60,0.457,24.9,25.2,24.4,9.89,7.8,207,7.6,10.9,0.00014,0.00018,30.5,34.0,8,0,0,.,5.98,0.00,0.00
15min,AgWx,beryljct,423,12DEC2020:01:45:00,35.6,12.73,36.8,36.7,36.9,37.2,36.7,62,63,61,0.465,25.2,25.4,24.8,10.5,11.1,196,6.1,14.6,0.00018,0.00022,30.5,33.9,8,0,0,.,5.99,0.00,0.00
15min,AgWx,beryljct,423,12DEC2020:02:00:00,35.8,12.71,36.5,36.3,36.3,36.7,35.9,64,65,63,0.462,25.3,25.8,25.1,8.37,10.1,196,7.8,13.6,0.00015,0.00019,30.5,33.9,9,0,0,.,5.99,0.00,0.00
15min,AgWx,beryljct,423,12DEC2020:02:15:00,35.8,12.71,35.9,35.3,35.8,36.3,35.3,64,65,63,0.454,25.0,25.5,24.7,8.07,6.9,201,5.8,9.1,0.00009,0.00013,30.6,33.9,8,0,0,.,5.99,0.00,0.00
15min,AgWx,beryljct,423,12DEC2020:02:30:00,35.8,12.71,37.3,36.6,36.0,36.6,35.3,63,66,60,0.439,24.5,25.2,23.9,11.66,9.6,202,6.6,12.8,0.00015,0.00019,30.7,33.8,8,0,0,.,5.99,0.00,0.00
15min,AgWx,beryljct,423,12DEC2020:02:45:00,36.2,12.69,37.5,37.2,36.9,37.2,36.6,59,60,58,0.433,23.8,24.1,23.5,11.36,11.3,204,6.5,15.7,0.00021,0.00025,30.7,33.8,8,0,0,.,5.99,0.00,0.00
15min,AgWx,beryljct,423,12DEC2020:03:00:00,36.3,12.69,36.4,36.0,36.4,37.2,35.6,59,61,57,0.434,23.5,23.8,23.1,6.993,8.4,197,11,12.4,0.00016,0.00020,30.8,33.8,9,0,0,.,6.00,0.00,0.00
15min,AgWx,beryljct,423,12DEC2020:03:15:00,36.0,12.69,37.7,36.8,36.0,37.0,35.2,60,63,54,0.405,23.2,24.0,21.7,12.87,6.0,198,23,15.2,0.00009,0.00013,30.8,33.8,8,0,0,.,6.00,0.00,0.00
15min,AgWx,beryljct,423,12DEC2020:03:30:00,36.4,12.68,38.0,37.9,37.5,37.9,36.8,51,55,50,0.391,21.0,22.1,20.6,11.62,12.0,207,12,18.9,0.00028,0.00033,30.9,33.8,8,0,0,.,6.00,0.00,0.00
15min,AgWx,beryljct,423,12DEC2020:03:45:00,36.9,12.67,38.1,37.6,37.8,38.0,37.6,51,51,50,0.392,21.3,21.4,21.1,7.87,11.0,195,16,17.7,0.00026,0.00032,31.0,33.7,8,0,0,.,5.99,0.00,0.00
15min,AgWx,beryljct,423,12DEC2020:04:00:00,37.4,12.66,38.1,38.0,37.9,38.2,37.6,51,53,50,0.408,21.6,22.3,21.3,13,13.3,202,15,23.0,0.00029,0.00034,31.0,33.7,9,0,0,.,6.00,0.00,0.00
15min,AgWx,beryljct,423,12DEC2020:04:15:00,37.5,12.66,37.7,37.4,37.6,38.0,37.3,53,54,52,0.404,22.1,22.7,21.6,8.55,10.9,218,10,17.7,0.00024,0.00029,31.1,33.7,8,0,0,.,5.99,0.00,0.00
15min,AgWx,beryljct,423,12DEC2020:04:30:00,37.6,12.64,38.3,37.7,37.6,38.0,37.2,53,54,52,0.412,21.8,22.5,21.4,19.77,12.4,218,11,20.2,0.00027,0.00032,31.1,33.7,9,0,0,.,6.00,0.00,0.00
15min,AgWx,beryljct,423,12DEC2020:04:45:00,37.8,12.64,38.0,37.8,37.8,38.0,37.6,55,56,53,0.427,23.0,23.4,22.5,14.99,18.2,216,9.1,25.0,0.00031,0.00035,31.2,33.7,8,0,0,.,6.00,0.00,0.00
15min,AgWx,beryljct,423,12DEC2020:05:00:00,37.9,12.63,37.4,37.2,37.6,37.8,37.2,56,57,56,0.430,23.4,23.6,23.3,14.23,16.4,206,7.9,21.3,0.00028,0.00032,31.3,33.6,8,0,0,.,6.00,0.00,0.00
15min,AgWx,beryljct,423,12DEC2020:05:15:00,37.8,12.62,37.5,37.0,37.1,37.3,36.9,59,62,57,0.464,24.3,25.3,23.3,20.04,16.0,199,8.1,23.0,0.00025,0.00029,31.3,33.7,8,0,0,.,6.00,0.00,0.00
15min,AgWx,beryljct,423,12DEC2020:05:30:00,37.7,12.62,36.9,36.6,36.7,37.1,36.5,65,67,62,0.492,25.9,26.7,25.3,16.68,16.8,188,7.3,22.5,0.00022,0.00025,31.4,33.6,8,0,0,.,6.00,0.00,0.00
15min,AgWx,beryljct,423,12DEC2020:05:45:00,37.5,12.61,36.9,36.6,36.6,36.7,36.5,67,68,67,0.496,26.9,27.0,26.7,12.32,14.2,187,8.1,18.4,0.00017,0.00020,31.5,33.6,8,0,0,.,6.00,0.00,0.00
15min,AgWx,beryljct,423,12DEC2020:06:00:00,37.5,12.59,36.9,36.5,36.6,36.7,36.4,68,69,67,0.506,27.0,27.4,26.8,20.78,15.1,182,7.4,23.1,0.00018,0.00020,31.5,33.6,8,0,0,.,6.00,0.00,0.00
15min,AgWx,beryljct,423,12DEC2020:06:15:00,37.4,12.6,36.9,36.5,36.5,36.6,36.4,69,70,69,0.507,27.4,27.5,27.2,19.51,18.1,186,7.6,23.5,0.00018,0.00021,31.6,33.7,8,0,0,.,6.00,0.00,0.00
15min,AgWx,beryljct,423,12DEC2020:06:30:00,37.3,12.6,36.8,36.3,36.4,36.6,36.3,69,70,69,0.502,27.3,27.5,27.2,17.08,15.6,187,7.6,20.9,0.00017,0.00020,31.7,33.6,8,0,0,.,6.00,0.00,0.00
15min,AgWx,beryljct,423,12DEC2020:06:45:00,37.2,12.59,36.8,36.5,36.4,36.6,36.2,69,70,69,0.506,27.2,27.6,26.9,13.04,14.3,189,7.4,19.4,0.00016,0.00019,31.7,33.6,8,0,0,.,6.00,0.00,0.00
15min,AgWx,beryljct,423,12DEC2020:07:00:00,37.2,12.59,36.8,36.7,36.7,36.9,36.5,69,69,68,0.509,27.4,27.6,27.3,8.86,10.8,199,8.6,15.4,0.00045,0.00079,31.8,33.7,8,0,0,.,6.00,0.00,0.00
15min,AgWx,beryljct,423,12DEC2020:07:15:00,37.2,12.58,37.2,37.0,36.8,37.0,36.6,70,70,69,0.515,27.9,28.1,27.5,11.31,12.6,207,8.6,17.9,0.00048,0.00084,31.9,33.7,8,0,0,.,6.00,0.00,0.00
15min,AgWx,beryljct,423,12DEC2020:07:30:00,37.4,12.57,37.9,37.5,37.1,37.5,36.9,67,69,65,0.491,27.2,27.8,26.6,11.64,11.4,213,8.2,16.0,0.00050,0.00087,31.9,33.7,8,0,0,.,6.00,0.00,0.00
15min,AgWx,beryljct,423,12DEC2020:07:45:00,37.7,12.59,38.1,37.9,37.8,38.0,37.5,64,65,63,0.505,26.8,27.4,26.4,14.91,13.5,212,8.7,19.7,0.00062,0.00107,32.0,33.7,8,2,0,.,6.00,0.00,0.00
15min,AgWx,beryljct,423,12DEC2020:08:00:00,38.0,12.59,37.9,37.9,38.0,38.2,37.7,66,68,66,0.523,27.8,28.2,27.4,11.4,15.0,224,6.3,20.2,0.00063,0.00108,32.1,33.7,8,4,0,.,6.00,0.00,0.00
15min,AgWx,beryljct,423,12DEC2020:08:15:00,38.3,12.57,38.2,38.1,38.0,38.3,37.7,67,68,66,0.522,28.0,28.3,27.8,10.28,12.8,211,8.9,16.8,0.00057,0.00098,32.1,33.8,8,5,0,.,6.00,0.00,0.00
15min,AgWx,beryljct,423,12DEC2020:08:30:00,38.5,12.6,38.2,38.0,38.0,38.2,37.9,68,68,67,0.530,28.4,28.6,28.1,9.23,12.3,213,9.7,17.3,0.00056,0.00095,32.1,33.8,8,12,0,.,6.00,0.00,0.00
15min,AgWx,beryljct,423,12DEC2020:08:45:00,38.6,12.58,36.3,36.5,37.4,38.0,36.5,69,72,63,0.461,28.3,29.3,25.2,10.63,10.8,282,51,18.0,0.00051,0.00085,32.2,33.8,8,16,0,.,6.00,0.00,0.00
15min,AgWx,beryljct,423,12DEC2020:09:00:00,38.2,12.6,34.8,34.6,35.4,36.5,34.6,68,74,63,0.500,25.7,27.2,24.8,10.13,10.9,340,13,15.2,0.00051,0.00085,32.2,33.8,8,16,0,.,5.99,0.00,0.00
15min,AgWx,beryljct,423,12DEC2020:09:15:00,37.5,12.61,33.6,33.4,34.1,34.7,33.4,78,83,74,0.538,28.0,28.9,27.2,8.46,9.2,330,7.5,13.9,0.00034,0.00055,32.3,33.8,8,24,0,.,6.00,0.00,0.00
15min,AgWx,beryljct,423,12DEC2020:09:30:00,36.7,12.67,32.6,32.5,33.0,33.4,32.5,87,92,84,0.572,29.7,30.4,28.9,9.27,9.8,311,11,14.4,0.00032,0.00044,32.4,33.8,8,53,0,.,6.00,0.00,0.00
15min,AgWx,beryljct,423,12DEC2020:09:45:00,36.0,12.77,33.0,32.3,32.2,32.5,32.0,94,95,92,0.589,30.7,31.1,30.3,5.809,7.1,301,13,12.4,0.00041,0.00048,32.4,33.8,8,115,26,.,6.00,0.00,0.00
15min,AgWx,beryljct,423,12DEC2020:10:00:00,35.6,12.75,34.0,33.5,33.1,33.5,32.4,91,95,89,0.575,30.8,31.4,30.5,8.24,10.2,256,7.6,13.6,0.00040,0.00050,32.5,33.8,9,99,100,.,6.00,0.00,0.00
15min,AgWx,beryljct,423,12DEC2020:10:15:00,35.4,12.71,34.5,34.1,33.8,34.2,33.6,87,89,85,0.569,30.4,30.6,30.2,11.05,10.1,255,6.0,12.7,0.00038,0.00052,32.5,33.9,8,72,100,.,6.00,0.00,0.00
15min,AgWx,beryljct,423,12DEC2020:10:30:00,35.6,12.73,35.7,35.3,34.7,35.4,34.1,83,86,79,0.550,29.9,30.3,29.3,12.17,11.2,261,6.9,13.4,0.00049,0.00069,32.6,33.9,8,84,0,.,6.01,0.00,0.00
15min,AgWx,beryljct,423,12DEC2020:10:45:00,36.2,12.72,36.2,35.8,35.7,35.9,35.3,77,79,75,0.553,29.2,29.6,28.8,7.958,12.6,272,6.3,16.7,0.00070,0.00098,32.6,33.9,8,116,0,.,6.00,0.00,0.00
15min,AgWx,beryljct,423,12DEC2020:11:00:00,36.4,12.9,29.5,28.9,33.4,35.9,28.6,79,89,74,0.478,27.6,29.7,24.5,14.03,9.0,339,74,14.4,0.00062,0.00082,32.7,33.9,9,119,0,.,6.01,0.00,0.00
15min,AgWx,beryljct,423,12DEC2020:11:15:00,35.6,13.33,28.1,28.1,28.6,29.2,28.1,89,91,88,0.461,25.9,26.7,25.1,16.31,14.1,60,8.8,19.8,0.00068,0.00082,32.7,33.9,8,274,0,.,6.01,0.00,0.00
15min,AgWx,beryljct,423,12DEC2020:11:30:00,34.3,13.1,27.9,27.4,27.5,28.2,27.2,88,89,87,0.442,24.4,25.2,23.9,11.42,14.7,53,9.3,18.9,0.00039,0.00052,32.8,33.9,9,101,0,.,6.01,0.00,0.00
15min,AgWx,beryljct,423,12DEC2020:11:45:00,33.1,13.04,28.0,27.5,27.5,27.7,27.3,87,88,86,0.439,24.1,24.5,23.7,14.47,14.3,51,8.4,18.6,0.00040,0.00054,32.9,33.9,9,103,0,.,6.01,0.00,0.00
15min,AgWx,beryljct,423,12DEC2020:12:00:00,32.5,13.24,29.1,28.5,28.0,28.5,27.5,86,87,85,0.448,24.2,24.7,23.7,13.55,15.0,50,7.9,21.2,0.00055,0.00072,33.0,34.0,9,176,0,.,6.01,0.00,0.00
15min,AgWx,beryljct,423,12DEC2020:12:15:00,32.8,14.82,32.2,31.5,29.8,31.6,28.5,82,85,78,0.465,25.0,26.0,24.3,12.58,15.0,41,7.2,18.6,0.00084,0.00106,33.1,34.0,8,306,0,.,6.01,0.00,0.00
15min,AgWx,beryljct,423,12DEC2020:12:30:00,33.8,13.46,31.5,31.6,31.7,32.1,31.4,76,78,73,0.454,24.9,25.6,24.0,17.08,14.9,33,8.7,20.6,0.00090,0.00120,33.1,34.0,8,251,0,.,6.00,0.00,0.00
15min,AgWx,beryljct,423,12DEC2020:12:45:00,34.5,14.34,33.6,33.0,32.1,33.2,31.3,72,75,67,0.429,24.0,24.5,23.1,14.51,15.6,29,9.2,19.9,0.00099,0.00135,33.2,34.1,8,277,0,.,6.01,0.00,0.00
15min,AgWx,beryljct,423,12DEC2020:13:00:00,35.4,13.6,32.3,32.0,32.7,33.3,32.0,67,69,66,0.410,23.1,24.0,22.2,16.46,16.2,33,7.6,21.5,0.00114,0.00157,33.2,34.1,8,312,0,.,6.00,0.00,0.00
15min,AgWx,beryljct,423,12DEC2020:13:15:00,35.6,13.41,31.6,31.8,31.8,32.0,31.5,67,68,64,0.390,22.0,22.7,21.1,15.43,17.1,32,9.3,24.1,0.00093,0.00135,33.3,34.1,8,198,0,.,6.01,0.00,0.00
15min,AgWx,beryljct,423,12DEC2020:13:30:00,35.4,13.4,31.5,31.1,31.4,31.7,31.0,64,66,61,0.362,20.6,21.6,19.3,14.78,16.4,18,10,24.6,0.00095,0.00139,33.4,34.1,8,194,0,.,6.01,0.00,0.00
15min,AgWx,beryljct,423,12DEC2020:13:45:00,35.0,13.33,31.8,31.5,31.3,31.5,31.1,59,62,57,0.343,18.8,19.7,17.9,19.51,17.8,17,9.5,23.4,0.00096,0.00147,33.6,34.2,8,158,0,.,6.00,0.00,0.00
15min,AgWx,beryljct,423,12DEC2020:14:00:00,34.8,13.25,32.4,31.8,31.7,32.0,31.5,56,58,53,0.326,17.9,18.5,16.8,12.43,18.2,15,11,24.8,0.00101,0.00157,33.7,34.2,8,145,0,.,6.00,0.00,0.00
15min,AgWx,beryljct,423,12DEC2020:14:15:00,34.8,13.28,32.6,32.3,32.3,32.6,31.8,51,54,49,0.311,16.2,17.3,15.4,18.98,17.3,14,11,22.5,0.00107,0.00169,33.7,34.2,8,142,0,.,6.00,0.00,0.00
15min,AgWx,beryljct,423,12DEC2020:14:30:00,34.7,13.32,32.6,32.2,32.3,32.6,32.2,48,51,46,0.280,14.6,16.3,13.5,18.48,15.4,4.8,12,21.4,0.00105,0.00168,33.8,34.3,8,120,0,.,6.00,0.00,0.00
15min,AgWx,beryljct,423,12DEC2020:14:45:00,34.3,14.79,33.7,33.6,32.5,33.9,32.0,44,57,40,0.262,13.2,20.2,11.7,20.04,15.4,9.0,11,20.7,0.00113,0.00179,33.9,34.3,8,182,0,.,6.00,0.00,0.00
15min,AgWx,beryljct,423,12DEC2020:15:00:00,35.3,14.63,34.2,33.8,33.8,34.2,33.5,37,40,36,0.244,10.4,11.5,9.3,16.18,17.6,3.6,9.2,24.2,0.00164,0.00249,33.9,34.3,9,333,0,.,6.00,0.00,0.00
15min,AgWx,beryljct,423,12DEC2020:15:15:00,35.5,13.51,32.7,32.6,33.1,33.8,32.6,36,37,35,0.221,9.0,10.4,8.1,10.57,16.8,2.1,8.0,22.3,0.00117,0.00198,33.9,34.4,8,89,0,.,6.00,0.00,0.00
15min,AgWx,beryljct,423,12DEC2020:15:30:00,35.0,14.73,33.3,32.7,32.6,33.7,31.8,43,59,35,0.372,12.2,20.0,8.2,7.541,14.3,24,20,22.3,0.00103,0.00169,33.9,34.4,8,172,0,.,6.00,0.00,0.00
15min,AgWx,beryljct,423,12DEC2020:15:45:00,35.7,14.63,32.1,31.9,32.4,32.8,31.9,61,62,59,0.378,20.4,21.0,19.5,10.26,11.1,56,14,19.2,0.00097,0.00137,33.9,34.4,9,269,0,.,5.99,0.00,0.00
15min,AgWx,beryljct,423,12DEC2020:16:00:00,36.1,14.64,31.7,31.3,31.6,32.0,31.2,63,65,62,0.371,20.6,21.3,20.0,12.63,10.6,60,8.5,14.6,0.00072,0.00108,33.9,34.5,8,201,0,.,6.00,0.00,0.00
15min,AgWx,beryljct,423,12DEC2020:16:15:00,36.2,14.63,32.8,32.3,31.5,32.3,31.2,60,63,50,0.310,19.0,20.0,15.8,11.31,10.4,51,15,14.2,0.00068,0.00106,33.9,34.5,9,172,0,.,5.99,0.00,0.00
15min,AgWx,beryljct,423,12DEC2020:16:30:00,36.2,14.59,31.6,31.4,32.2,32.7,31.4,47,54,41,0.319,14.2,16.5,11.7,12.36,11.1,28,13,14.9,0.00040,0.00045,33.9,34.5,8,134,0,.,5.99,0.00,0.00
15min,AgWx,beryljct,423,12DEC2020:16:45:00,35.4,13.22,29.1,29.2,30.2,31.4,29.2,57,58,54,0.317,16.7,17.1,16.3,8.02,9.9,35,9.2,13.7,0.00025,0.00029,33.9,34.5,8,38,0,.,5.99,0.00,0.00
15min,AgWx,beryljct,423,12DEC2020:17:00:00,33.4,13.11,28.8,28.2,28.6,29.3,27.9,59,61,58,0.317,16.2,16.5,15.9,7.234,8.1,31,8.2,12.2,0.00019,0.00022,33.8,34.6,8,15,0,.,5.99,0.00,0.00
15min,AgWx,beryljct,423,12DEC2020:17:15:00,31.4,13.05,26.6,26.2,27.1,28.2,26.2,62,63,60,0.306,15.7,16.3,15.3,5.831,6.2,39,7.3,8.4,0.00014,0.00018,33.8,34.6,9,9,0,.,5.99,0.00,0.00
15min,AgWx,beryljct,423,12DEC2020:17:30:00,29.6,13.01,26.0,25.9,26.1,26.5,25.8,63,64,63,0.300,15.4,15.8,15.0,7.826,7.5,42,6.3,9.9,0.00014,0.00017,33.7,34.6,8,3,0,.,5.99,0.00,0.00
15min,AgWx,beryljct,423,12DEC2020:17:45:00,28.5,12.96,25.7,25.4,25.5,25.9,25.2,63,64,63,0.295,14.8,15.0,14.5,9.62,9.5,41,5.8,11.6,0.00015,0.00018,33.6,34.6,8,0,0,.,5.99,0.00,0.00
15min,AgWx,beryljct,423,12DEC2020:18:00:00,27.6,12.94,24.6,24.7,25.0,25.5,24.4,64,65,63,0.292,14.5,14.8,14.2,8.24,9.2,38,6.8,12.4,0.00014,0.00017,33.5,34.7,9,0,0,.,5.99,0.00,0.00
15min,AgWx,beryljct,423,12DEC2020:18:15:00,26.8,12.93,23.8,23.9,24.1,24.6,23.7,65,66,64,0.290,14.1,14.3,13.8,7.826,8.8,28,5.8,11.0,0.00013,0.00015,33.3,34.7,8,0,0,.,5.99,0.00,0.00
15min,AgWx,beryljct,423,12DEC2020:18:30:00,26.1,12.91,23.9,23.8,24.0,24.5,23.7,66,67,65,0.284,14.3,14.7,13.7,8.31,9.6,28,8.8,13.7,0.00013,0.00015,33.2,34.7,9,0,0,.,5.99,0.00,0.00
15min,AgWx,beryljct,423,12DEC2020:18:45:00,25.7,12.91,24.4,24.3,23.9,24.6,23.2,65,66,63,0.281,13.8,14.1,13.6,6.949,8.6,13,10,10.2,0.00013,0.00015,33.0,34.7,8,0,0,.,5.99,0.00,0.00
15min,AgWx,beryljct,423,12DEC2020:19:00:00,25.1,12.88,20.8,21.1,22.1,24.2,20.6,67,70,63,0.268,12.9,13.6,12.3,4.516,6.4,346,8.7,8.2,0.00010,0.00012,32.8,34.8,9,0,0,.,5.99,0.00,0.00
15min,AgWx,beryljct,423,12DEC2020:19:15:00,24.2,12.89,20.2,20.2,21.2,21.8,20.2,68,70,67,0.254,12.2,12.9,11.3,6.862,6.9,337,9.1,9.0,0.00010,0.00012,32.6,34.8,8,0,0,.,5.99,0.00,0.00
15min,AgWx,beryljct,423,12DEC2020:19:30:00,23.3,12.86,19.3,19.0,19.9,20.7,19.0,69,70,68,0.250,11.3,12.0,10.7,4.187,5.4,333,7.8,7.1,0.00008,0.00010,32.4,34.8,9,0,0,.,6.00,0.00,0.00
15min,AgWx,beryljct,423,12DEC2020:19:45:00,22.1,12.85,18.5,18.7,19.0,19.3,18.7,70,71,70,0.248,10.9,11.1,10.6,3.179,3.3,349,8.8,5.4,0.00004,0.00006,32.2,34.8,9,0,0,.,5.99,0.00,0.00
15min,AgWx,beryljct,423,12DEC2020:20:00:00,21.2,12.83,18.7,18.8,18.3,19.1,17.5,72,73,70,0.251,10.7,11.5,9.8,3.31,4.1,345,15,6.9,0.00005,0.00007,32.0,34.8,8,0,0,.,6.00,0.00,0.00
15min,AgWx,beryljct,423,12DEC2020:20:15:00,20.4,12.83,17.3,17.2,18.2,18.7,17.2,72,73,71,0.239,10.7,11.2,9.9,3.727,2.3,61,63,5.1,0.00002,0.00003,31.8,34.8,8,0,0,.,6.00,0.00,0.00
15min,AgWx,beryljct,423,12DEC2020:20:30:00,19.7,12.81,18.8,18.5,17.6,18.6,17.0,75,76,73,0.256,11.0,11.9,9.9,0,3.0,162,51,6.0,0.00003,0.00004,31.6,34.8,8,0,0,.,6.00,0.00,0.00
15min,AgWx,beryljct,423,12DEC2020:20:45:00,19.1,12.8,19.3,19.4,18.4,19.4,17.9,74,75,73,0.262,11.5,12.0,11.0,1.491,0.7,146,67,2.3,-0.00002,-0.00003,31.4,34.7,8,0,0,.,5.99,0.00,0.00
15min,AgWx,beryljct,423,12DEC2020:21:00:00,18.7,12.8,20.2,19.8,19.5,19.8,19.0,71,72,70,0.259,11.6,12.0,11.0,0.943,1.7,56,19,2.7,0.00001,0.00002,31.1,34.7,8,0,0,.,6.00,0.00,0.00
15min,AgWx,beryljct,423,12DEC2020:21:15:00,18.2,12.79,16.5,15.5,18.2,19.8,15.3,71,76,70,0.231,10.5,11.7,7.5,0.811,0.9,110,30,2.3,-0.00001,-0.00001,30.9,34.7,8,0,0,.,5.99,0.00,0.00
15min,AgWx,beryljct,423,12DEC2020:21:30:00,17.7,12.77,17.8,17.2,16.6,17.8,15.4,75,77,73,0.245,10.1,11.3,9.1,4.801,3.2,41,30,5.3,0.00003,0.00004,30.7,34.7,8,0,0,.,6.00,0.00,0.00
15min,AgWx,beryljct,423,12DEC2020:21:45:00,17.3,12.76,16.6,16.2,16.3,17.3,15.5,76,77,74,0.243,10.0,10.6,9.0,4.647,5.0,42,13,6.2,0.00005,0.00006,30.4,34.7,8,0,0,.,6.00,0.00,0.00
15min,AgWx,beryljct,423,12DEC2020:22:00:00,16.7,12.74,14.5,14.6,14.6,16.2,14.0,77,78,75,0.228,8.7,10.3,8.1,4.341,4.9,53,5.8,5.8,0.00004,0.00005,30.2,34.6,9,0,0,.,6.00,0.00,0.00
15min,AgWx,beryljct,423,12DEC2020:22:15:00,16.0,12.75,14.1,13.2,13.9,14.9,13.2,78,79,76,0.219,8.2,9.1,7.8,5.809,4.8,50,3.8,5.8,0.00003,0.00004,29.9,34.6,8,0,0,.,6.00,0.00,0.00
15min,AgWx,beryljct,423,12DEC2020:22:30:00,15.3,12.72,14.3,13.9,13.1,14.2,12.0,79,81,78,0.221,7.9,9.1,6.8,6.029,5.3,35,8.0,6.1,0.00003,0.00004,29.7,34.6,8,0,0,.,6.00,0.00,0.00
15min,AgWx,beryljct,423,12DEC2020:22:45:00,15.2,12.73,9.9,10.7,14.1,16.3,10.7,77,79,73,0.189,8.2,10.3,4.7,3.749,5.6,2.9,21,7.8,0.00004,0.00005,29.4,34.5,8,0,0,.,6.00,0.00,0.00
15min,AgWx,beryljct,423,12DEC2020:23:00:00,14.7,12.72,12.4,11.8,10.7,11.8,10.0,81,82,77,0.213,6.1,7.4,4.5,6.204,5.3,308,4.2,6.3,0.00003,0.00003,29.2,34.5,8,0,0,.,6.00,0.00,0.00
15min,AgWx,beryljct,423,12DEC2020:23:15:00,14.3,12.71,11.8,11.7,12.4,13.3,11.7,81,82,79,0.209,7.5,8.6,6.5,5.086,6.4,315,5.7,7.4,0.00003,0.00004,29.0,34.4,8,0,0,.,6.00,0.00,0.00
15min,AgWx,beryljct,423,12DEC2020:23:30:00,13.7,12.7,10.8,10.3,10.1,11.7,9.3,82,84,81,0.203,5.7,6.9,4.9,5.152,4.6,318,8.4,5.3,0.00002,0.00003,28.8,34.4,8,0,0,.,6.00,0.00,0.00
15min,AgWx,bigpiney,439,12DEC2020:00:00:00,4.3,12.55,0.3,-0.5,0.6,1.5,-0.5,83,85,82,0.122,-3.4,-2.1,-4.8,3.266,3.7,249,21,5.7,0.00002,0.00002,31.0,32.8,46,0,0,0.0,0.00,0.00,0.00
15min,AgWx,bigpiney,439,12DEC2020:00:15:00,3.5,12.55,-0.5,-1.1,0.9,2.5,-1.4,84,86,80,0.118,-2.8,-0.8,-6.0,0,2.3,277,40,3.8,0.00001,0.00002,31.0,32.7,46,0,0,0.0,0.00,0.00,0.00
15min,AgWx,bigpiney,439,12DEC2020:00:30:00,2.6,12.54,0.4,-0.4,-0.7,0.1,-2.3,84,85,81,0.124,-4.5,-3.4,-6.6,3.88,1.4,285,23,4.0,0.00000,0.00001,31.0,32.8,46,0,0,0.0,0.00,0.00,0.00
15min,AgWx,bigpiney,439,12DEC2020:00:45:00,1.9,12.53,2.7,1.3,-0.3,1.3,-1.9,84,87,81,0.139,-4.0,-1.8,-6.3,2.762,3.2,252,13,3.8,0.00001,0.00002,31.0,32.7,46,0,0,0.0,0.00,0.00,0.00
15min,AgWx,bigpiney,439,12DEC2020:01:00:00,1.4,12.52,2.5,1.7,-0.7,2.4,-3.0,84,89,79,0.145,-4.5,0.0,-7.8,2.674,3.0,239,5.9,4.7,0.00001,0.00002,31.0,32.8,46,0,0,0.0,0.00,0.00,0.00
15min,AgWx,bigpiney,439,12DEC2020:01:15:00,0.9,12.51,-4.4,-4.8,-0.9,3.1,-4.8,82,87,79,0.097,-5.1,0.0,-9.6,2.148,2.9,234,21,4.2,0.00001,0.00002,31.0,32.8,46,0,0,0.0,0.00,0.00,0.00
15min,AgWx,bigpiney,439,12DEC2020:01:30:00,0.4,12.5,-4.8,-4.5,-3.8,0.4,-5.7,83,89,80,0.099,-7.7,-2.1,-10.1,4.691,2.6,235,17,5.1,0.00001,0.00001,30.9,32.7,46,0,0,0.0,0.00,0.00,0.00
15min,AgWx,bigpiney,439,12DEC2020:01:45:00,-0.1,12.49,-4.5,-3.1,-4.3,-2.5,-5.5,83,86,80,0.112,-8.2,-5.7,-10.0,0,1.3,324,48,4.5,0.00000,0.00001,30.9,32.8,46,0,0,0.0,0.00,0.00,0.00
15min,AgWx,bigpiney,439,12DEC2020:02:00:00,-0.4,12.47,-2.6,-2.8,-2.8,-1.9,-3.9,85,86,84,0.112,-6.2,-5.2,-7.5,0.658,0.7,54,47,2.4,-0.00000,-0.00000,30.9,32.8,47,0,0,0.0,0.00,0.00,0.00
15min,AgWx,bigpiney,439,12DEC2020:02:15:00,-0.7,12.46,0.5,0.2,-1.6,0.3,-2.9,85,87,84,0.131,-4.9,-2.9,-6.5,3.442,1.6,19,29,3.5,0.00000,0.00001,30.9,32.8,47,0,0,0.0,0.00,0.00,0.00
15min,AgWx,bigpiney,439,12DEC2020:02:30:00,-0.6,12.46,-2.4,-3.0,-2.3,0.1,-3.1,83,85,83,0.110,-6.1,-3.3,-7.0,5.349,4.2,8.9,12,5.4,0.00002,0.00002,30.9,32.8,46,0,0,0.0,0.00,0.00,0.00
15min,AgWx,bigpiney,439,12DEC2020:02:45:00,-0.5,12.45,-1.9,-2.5,-2.8,-1.5,-3.3,84,86,83,0.114,-6.6,-4.7,-7.3,3.486,2.9,221,83,6.0,0.00001,0.00002,30.9,32.8,46,0,0,0.0,0.00,0.00,0.00
15min,AgWx,bigpiney,439,12DEC2020:03:00:00,-0.3,12.44,-1.8,-2.6,-2.9,-2.4,-3.5,83,84,83,0.113,-6.8,-6.0,-7.5,4.735,4.9,193,12,5.9,0.00002,0.00002,30.9,32.7,46,0,0,0.0,0.00,0.00,0.00
15min,AgWx,bigpiney,439,12DEC2020:03:15:00,-0.1,12.43,-0.8,-1.3,-1.8,-1.3,-2.8,84,85,84,0.119,-5.5,-5.0,-6.5,2.85,4.0,205,11,6.3,0.00002,0.00002,30.9,32.8,46,0,0,0.0,0.00,0.00,0.00
15min,AgWx,bigpiney,439,12DEC2020:03:30:00,0.3,12.43,1.3,0.6,-0.7,0.7,-1.5,84,84,83,0.131,-4.4,-3.0,-5.3,1.995,3.0,219,15,4.6,0.00001,0.00002,30.9,32.8,47,0,0,0.0,0.00,0.00,0.00
15min,AgWx,bigpiney,439,12DEC2020:03:45:00,0.9,12.4,2.5,1.9,2.1,3.4,0.6,84,85,82,0.137,-1.7,-0.3,-3.2,4.275,3.1,183,16,4.3,0.00001,0.00002,30.8,32.8,47,0,0,0.0,0.00,0.00,0.00
15min,AgWx,bigpiney,439,12DEC2020:04:00:00,1.5,12.39,2.7,1.9,1.7,2.3,1.1,83,84,83,0.139,-2.3,-1.6,-3.0,2.609,3.7,214,8.3,5.2,0.00002,0.00002,30.8,32.8,47,0,0,0.0,0.00,0.00,0.00
15min,AgWx,bigpiney,439,12DEC2020:04:15:00,2.1,12.4,1.7,1.2,1.5,2.2,0.7,83,84,82,0.133,-2.5,-1.7,-3.6,4.034,1.6,105,65,4.1,0.00001,0.00001,30.8,32.8,47,0,0,0.0,0.00,0.00,0.00
15min,AgWx,bigpiney,439,12DEC2020:04:30:00,2.6,12.39,-0.6,-1.1,0.1,1.3,-1.2,83,83,82,0.120,-3.9,-2.6,-5.2,2.609,2.5,49,11,4.0,0.00001,0.00002,30.8,32.8,47,0,0,0.0,0.00,0.00,0.00
15min,AgWx,bigpiney,439,12DEC2020:04:45:00,2.8,12.38,-1.5,-2.1,-1.6,-1.1,-2.1,83,84,83,0.114,-5.4,-5.0,-6.0,1.798,2.0,16,26,3.9,0.00001,0.00001,30.8,32.8,47,0,0,0.0,0.00,0.00,0.00
15min,AgWx,bigpiney,439,12DEC2020:05:00:00,2.7,12.38,-0.4,-1.2,-1.9,-1.2,-2.2,84,84,83,0.120,-5.6,-4.9,-6.0,2.609,1.9,287,28,3.3,0.00001,0.00001,30.8,32.7,47,0,0,0.0,0.00,0.00,0.00
15min,AgWx,bigpiney,439,12DEC2020:05:15:00,2.5,12.36,1.4,0.6,-0.1,0.6,-1.2,84,85,84,0.132,-3.7,-3.0,-4.8,1.425,2.1,282,14,3.3,0.00001,0.00001,30.8,32.8,47,0,0,0.0,0.00,0.00,0.00
15min,AgWx,bigpiney,439,12DEC2020:05:30:00,2.7,12.36,2.9,2.2,1.7,2.4,0.7,84,84,84,0.141,-2.0,-1.2,-2.9,3.376,2.8,281,14,5.2,0.00001,0.00002,30.8,32.8,47,0,0,0.0,0.00,0.00,0.00
15min,AgWx,bigpiney,439,12DEC2020:05:45:00,3.1,12.36,3.9,3.2,2.8,3.3,2.2,83,84,83,0.146,-1.1,-0.7,-1.6,1.469,2.3,281,17,3.7,0.00001,0.00002,30.8,32.7,47,0,0,0.0,0.00,0.00,0.00
15min,AgWx,bigpiney,439,12DEC2020:06:00:00,3.6,12.34,4.0,3.5,3.5,3.7,3.2,83,83,82,0.148,-0.7,-0.4,-0.8,1.074,1.0,188,42,2.1,0.00000,0.00001,30.8,32.8,47,0,0,0.0,0.00,0.00,0.00
15min,AgWx,bigpiney,439,12DEC2020:06:15:00,3.9,12.36,2.1,1.8,2.8,3.5,1.8,83,84,83,0.137,-1.2,-0.5,-2.1,3.332,1.9,166,18,3.3,0.00001,0.00001,30.7,32.8,47,0,0,0.0,0.00,0.00,0.00
15min,AgWx,bigpiney,439,12DEC2020:06:30:00,3.9,12.36,1.6,-0.0,0.8,1.8,-0.8,83,83,82,0.126,-3.1,-2.1,-4.9,3.179,2.8,198,7.2,3.5,0.00001,0.00002,30.7,32.8,47,0,0,0.0,0.00,0.00,0.00
15min,AgWx,bigpiney,439,12DEC2020:06:45:00,3.5,12.35,-0.4,-0.6,0.7,1.2,-0.6,84,85,83,0.122,-3.0,-2.4,-4.6,2.872,1.7,208,44,3.2,0.00001,0.00001,30.7,32.8,47,0,0,0.0,0.00,0.00,0.00
15min,AgWx,bigpiney,439,12DEC2020:07:00:00,2.7,12.35,-1.7,-3.3,-1.6,0.1,-3.4,84,85,82,0.111,-5.2,-3.5,-6.9,0,1.5,48,27,3.5,0.00001,0.00001,30.7,32.8,47,0,0,0.0,0.00,0.00,0.00
15min,AgWx,bigpiney,439,12DEC2020:07:15:00,1.5,12.34,-5.8,-6.1,-5.8,-2.9,-6.8,84,86,83,0.096,-9.4,-6.1,-10.7,3.113,3.8,282,11,6.0,0.00001,0.00002,30.7,32.8,47,0,0,0.0,0.00,0.00,0.00
15min,AgWx,bigpiney,439,12DEC2020:07:30:00,0.0,12.34,-5.1,-5.8,-5.5,-4.8,-6.7,85,87,84,0.097,-8.9,-7.8,-10.3,1.907,4.2,276,7.3,5.5,0.00001,0.00002,30.7,32.7,47,0,0,0.0,0.00,0.00,0.00
15min,AgWx,bigpiney,439,12DEC2020:07:45:00,-1.1,12.37,-8.7,-8.6,-6.4,-4.5,-8.6,84,86,82,0.082,-10.1,-7.7,-12.8,3.179,3.4,257,15,4.3,0.00001,0.00002,30.7,32.8,47,3,0,0.0,0.00,0.00,0.00
15min,AgWx,bigpiney,439,12DEC2020:08:00:00,-2.2,12.47,-3.2,-6.6,-8.4,-6.6,-9.1,82,84,81,0.093,-12.3,-10.3,-13.2,3.771,3.1,223,10,4.5,-0.00003,-0.00001,30.7,32.7,46,9,0,0.0,0.00,0.00,0.00
15min,AgWx,bigpiney,439,12DEC2020:08:15:00,-2.8,14.99,-4.9,-5.9,-5.9,-4.5,-6.5,83,86,82,0.094,-9.6,-7.9,-10.4,0.943,2.8,229,8.3,5.4,-0.00004,-0.00003,30.7,32.8,47,25,0,0.0,0.00,0.00,0.00
15min,AgWx,bigpiney,439,12DEC2020:08:30:00,-2.7,15,-2.5,-3.5,-4.8,-3.5,-5.9,83,83,82,0.106,-8.7,-7.4,-10.0,3.398,2.1,205,5.8,3.6,0.00001,0.00002,30.7,32.7,47,81,0,0.0,0.00,0.00,0.00
15min,AgWx,bigpiney,439,12DEC2020:08:45:00,-1.9,15.01,-1.0,-2.4,-3.0,-2.4,-3.5,83,83,82,0.113,-7.0,-6.2,-7.4,3.266,2.5,200,4.4,4.0,0.00004,0.00005,30.7,32.7,47,78,0,0.0,0.00,0.00,0.00
15min,AgWx,bigpiney,439,12DEC2020:09:00:00,-0.7,15.04,2.0,0.7,-1.6,0.7,-3.6,83,85,81,0.133,-5.4,-2.8,-8.0,0,2.3,187,58,5.0,0.00011,0.00014,30.6,32.7,47,149,0,0.0,0.00,0.00,0.00